Time,TemperatureF,DewpointF,PressureIn,WindDirection,WindDirectionDegrees,WindSpeedMPH,WindSpeedGustMPH,Humidity,HourlyPrecipIn,Conditions,Clouds,dailyrainin,SoftwareType,DateUTC
2013-03-22 00:03:00,46.8,43.2,30.14,North,0,0.0,0.0,87,0.00,,,0.00,WUHU216HW,2013-03-22 07:03:00,
2013-03-22 00:08:00,46.8,43.2,30.14,North,0,0.0,0.0,87,0.00,,,0.00,WUHU216HW,2013-03-22 07:08:00,
2013-03-22 00:13:00,46.8,43.2,30.14,North,0,0.0,0.0,87,0.00,,,0.00,WUHU216HW,2013-03-22 07:13:00,
2013-03-22 00:18:00,46.8,43.2,30.13,North,0,0.0,0.0,87,0.00,,,0.00,WUHU216HW,2013-03-22 07:18:00,
2013-03-22 00:23:00,46.6,43.0,30.13,North,0,0.0,0.0,87,0.00,,,0.00,WUHU216HW,2013-03-22 07:23:00,
2013-03-22 00:28:00,46.6,43.0,30.13,North,0,0.0,0.0,87,0.00,,,0.00,WUHU216HW,2013-03-22 07:28:00,
2013-03-22 00:33:00,46.6,43.3,30.13,North,0,0.0,0.0,88,0.00,,,0.00,WUHU216HW,2013-03-22 07:33:00,
2013-03-22 00:38:00,46.4,43.1,30.13,North,0,0.0,0.0,88,0.00,,,0.00,WUHU216HW,2013-03-22 07:38:00,
2013-03-22 00:43:00,46.4,43.1,30.13,North,0,0.0,0.0,88,0.00,,,0.00,WUHU216HW,2013-03-22 07:43:00,
2013-03-22 00:48:00,46.4,43.1,30.13,North,0,0.0,0.0,88,0.00,,,0.00,WUHU216HW,2013-03-22 07:48:00,
2013-03-22 00:53:00,46.4,43.5,30.13,North,0,0.0,0.0,89,0.00,,,0.00,WUHU216HW,2013-03-22 07:53:00,
2013-03-22 00:58:00,46.6,43.3,30.13,North,0,0.0,0.0,88,0.00,,,0.00,WUHU216HW,2013-03-22 07:58:00,
2013-03-22 01:03:00,46.4,43.5,30.13,North,0,0.0,0.0,89,0.00,,,0.00,WUHU216HW,2013-03-22 08:03:00,
2013-03-22 01:08:00,46.6,43.7,30.13,North,0,0.0,0.0,89,0.00,,,0.00,WUHU216HW,2013-03-22 08:08:00,
2013-03-22 01:13:00,46.6,43.7,30.13,North,0,0.0,0.0,89,0.00,,,0.00,WUHU216HW,2013-03-22 08:13:00,
2013-03-22 01:18:00,46.6,43.7,30.13,North,0,0.0,0.0,89,0.00,,,0.00,WUHU216HW,2013-03-22 08:18:00,
2013-03-22 01:23:00,46.4,43.5,30.13,North,0,0.0,0.0,89,0.00,,,0.00,WUHU216HW,2013-03-22 08:23:00,
2013-03-22 01:28:00,46.4,43.5,30.13,North,0,0.0,0.0,89,0.00,,,0.00,WUHU216HW,2013-03-22 08:28:00,
2013-03-22 01:33:00,46.4,43.5,30.13,North,0,0.0,0.0,89,0.00,,,0.00,WUHU216HW,2013-03-22 08:33:00,
2013-03-22 01:38:00,46.3,43.3,30.13,North,0,0.0,0.0,89,0.00,,,0.00,WUHU216HW,2013-03-22 08:38:00,
2013-03-22 01:43:00,46.3,43.6,30.13,North,0,0.0,0.0,90,0.00,,,0.00,WUHU216HW,2013-03-22 08:43:00,
2013-03-22 01:48:00,46.4,43.7,30.13,North,0,0.0,0.0,90,0.00,,,0.00,WUHU216HW,2013-03-22 08:48:00,
2013-03-22 01:53:00,46.4,43.7,30.13,North,0,0.0,0.0,90,0.00,,,0.00,WUHU216HW,2013-03-22 08:53:00,
2013-03-22 01:58:00,46.3,43.3,30.13,North,0,0.0,0.0,89,0.00,,,0.00,WUHU216HW,2013-03-22 08:58:00,
2013-03-22 02:03:00,46.3,43.3,30.13,North,0,0.0,0.0,89,0.00,,,0.00,WUHU216HW,2013-03-22 09:03:00,
2013-03-22 02:08:00,46.1,43.1,30.13,North,0,0.0,0.0,89,0.00,,,0.00,WUHU216HW,2013-03-22 09:08:00,
2013-03-22 02:13:00,46.1,43.4,30.13,North,0,0.0,0.0,90,0.00,,,0.00,WUHU216HW,2013-03-22 09:13:00,
2013-03-22 02:18:00,46.1,43.4,30.13,North,0,0.0,0.0,90,0.00,,,0.00,WUHU216HW,2013-03-22 09:18:00,
2013-03-22 02:23:00,46.1,43.4,30.12,North,0,0.0,0.0,90,0.00,,,0.00,WUHU216HW,2013-03-22 09:23:00,
2013-03-22 02:28:00,46.1,43.4,30.13,North,0,0.0,0.0,90,0.00,,,0.00,WUHU216HW,2013-03-22 09:28:00,
2013-03-22 02:33:00,46.1,43.4,30.13,North,0,0.0,0.0,90,0.00,,,0.00,WUHU216HW,2013-03-22 09:33:00,
2013-03-22 02:38:00,45.9,43.2,30.13,North,0,0.0,0.0,90,0.00,,,0.00,WUHU216HW,2013-03-22 09:38:00,
2013-03-22 02:43:00,45.7,43.0,30.13,North,0,0.0,0.0,90,0.00,,,0.00,WUHU216HW,2013-03-22 09:43:00,
2013-03-22 02:48:00,45.7,43.0,30.12,North,0,0.0,0.0,90,0.00,,,0.00,WUHU216HW,2013-03-22 09:48:00,
2013-03-22 02:53:00,45.5,42.8,30.12,North,0,0.0,0.0,90,0.00,,,0.00,WUHU216HW,2013-03-22 09:53:00,
2013-03-22 02:58:00,45.7,43.0,30.12,North,0,0.0,0.0,90,0.00,,,0.00,WUHU216HW,2013-03-22 09:58:00,
2013-03-22 03:03:00,45.5,42.8,30.12,North,0,0.0,0.0,90,0.00,,,0.00,WUHU216HW,2013-03-22 10:03:00,
2013-03-22 03:08:00,45.5,42.8,30.12,North,0,0.0,0.0,90,0.00,,,0.00,WUHU216HW,2013-03-22 10:08:00,
2013-03-22 03:13:00,45.2,42.5,30.12,North,0,0.0,0.0,90,0.00,,,0.00,WUHU216HW,2013-03-22 10:13:00,
2013-03-22 03:18:00,45.2,42.5,30.12,North,0,0.0,0.0,90,0.00,,,0.00,WUHU216HW,2013-03-22 10:18:00,
2013-03-22 03:23:00,45.5,43.1,30.12,North,0,0.0,0.0,91,0.00,,,0.00,WUHU216HW,2013-03-22 10:23:00,
2013-03-22 03:28:00,45.7,43.3,30.12,North,0,0.0,0.0,91,0.00,,,0.00,WUHU216HW,2013-03-22 10:28:00,
2013-03-22 03:33:00,45.5,43.1,30.12,North,0,0.0,0.0,91,0.00,,,0.00,WUHU216HW,2013-03-22 10:33:00,
2013-03-22 03:38:00,45.4,42.9,30.12,North,0,0.0,0.0,91,0.00,,,0.00,WUHU216HW,2013-03-22 10:38:00,
2013-03-22 03:43:00,45.0,42.6,30.12,North,0,0.0,0.0,91,0.00,,,0.00,WUHU216HW,2013-03-22 10:43:00,
2013-03-22 03:48:00,44.8,42.4,30.11,North,0,0.0,0.0,91,0.00,,,0.00,WUHU216HW,2013-03-22 10:48:00,
2013-03-22 03:53:00,44.8,42.4,30.12,North,0,0.0,0.0,91,0.00,,,0.00,WUHU216HW,2013-03-22 10:53:00,
2013-03-22 03:58:00,44.6,42.2,30.11,North,0,0.0,0.0,91,0.00,,,0.00,WUHU216HW,2013-03-22 10:58:00,
2013-03-22 04:03:00,44.8,42.4,30.11,North,0,0.0,0.0,91,0.00,,,0.00,WUHU216HW,2013-03-22 11:03:00,
2013-03-22 04:08:00,44.8,42.4,30.11,North,0,0.0,0.0,91,0.00,,,0.00,WUHU216HW,2013-03-22 11:08:00,
2013-03-22 04:13:00,45.0,42.6,30.11,North,0,0.0,0.0,91,0.00,,,0.00,WUHU216HW,2013-03-22 11:13:00,
2013-03-22 04:18:00,45.4,42.9,30.11,North,0,0.0,0.0,91,0.00,,,0.00,WUHU216HW,2013-03-22 11:18:00,
2013-03-22 04:23:00,45.4,42.9,30.11,North,0,0.0,0.0,91,0.00,,,0.00,WUHU216HW,2013-03-22 11:23:00,
2013-03-22 04:28:00,45.0,42.6,30.12,North,0,0.0,0.0,91,0.00,,,0.00,WUHU216HW,2013-03-22 11:28:00,
2013-03-22 04:33:00,44.8,42.4,30.11,North,0,0.0,0.0,91,0.00,,,0.00,WUHU216HW,2013-03-22 11:33:00,
2013-03-22 04:38:00,44.6,42.2,30.11,North,0,0.0,0.0,91,0.00,,,0.00,WUHU216HW,2013-03-22 11:38:00,
2013-03-22 04:43:00,44.6,41.9,30.12,North,0,0.0,0.0,90,0.00,,,0.00,WUHU216HW,2013-03-22 11:43:00,
2013-03-22 04:48:00,44.5,41.8,30.12,North,0,0.0,0.0,90,0.00,,,0.00,WUHU216HW,2013-03-22 11:48:00,
2013-03-22 04:53:00,44.6,42.2,30.12,North,0,0.0,0.0,91,0.00,,,0.00,WUHU216HW,2013-03-22 11:53:00,
2013-03-22 04:58:00,44.8,42.4,30.11,North,0,0.0,0.0,91,0.00,,,0.00,WUHU216HW,2013-03-22 11:58:00,
2013-03-22 05:03:00,44.8,42.4,30.11,North,0,0.0,0.0,91,0.00,,,0.00,WUHU216HW,2013-03-22 12:03:00,
2013-03-22 05:08:00,44.8,42.4,30.11,North,0,0.0,0.0,91,0.00,,,0.00,WUHU216HW,2013-03-22 12:08:00,
2013-03-22 05:13:00,45.0,42.3,30.11,North,0,0.0,0.0,90,0.00,,,0.00,WUHU216HW,2013-03-22 12:13:00,
2013-03-22 05:18:00,45.2,42.5,30.11,North,0,0.0,0.0,90,0.00,,,0.00,WUHU216HW,2013-03-22 12:18:00,
2013-03-22 05:23:00,45.0,42.3,30.11,North,0,0.0,0.0,90,0.00,,,0.00,WUHU216HW,2013-03-22 12:23:00,
2013-03-22 05:28:00,45.0,42.3,30.11,North,0,0.0,0.0,90,0.00,,,0.00,WUHU216HW,2013-03-22 12:28:00,
2013-03-22 05:33:00,44.8,42.1,30.11,North,0,0.0,0.0,90,0.00,,,0.00,WUHU216HW,2013-03-22 12:33:00,
2013-03-22 05:39:00,44.6,41.7,30.12,North,0,0.0,0.0,89,0.00,,,0.00,WUHU216HW,2013-03-22 12:39:00,
2013-03-22 05:44:00,44.3,41.0,30.11,North,0,0.0,0.0,88,0.00,,,0.00,WUHU216HW,2013-03-22 12:44:00,
2013-03-22 05:49:00,44.3,41.3,30.11,North,0,0.0,0.0,89,0.00,,,0.00,WUHU216HW,2013-03-22 12:49:00,
2013-03-22 05:54:00,44.3,41.3,30.11,North,0,0.0,0.0,89,0.00,,,0.00,WUHU216HW,2013-03-22 12:54:00,
2013-03-22 05:59:00,44.3,41.3,30.11,North,0,0.0,0.0,89,0.00,,,0.00,WUHU216HW,2013-03-22 12:59:00,
2013-03-22 06:04:00,44.5,41.5,30.11,North,0,0.0,0.0,89,0.00,,,0.00,WUHU216HW,2013-03-22 13:04:00,
2013-03-22 06:09:00,44.5,41.5,30.11,North,0,0.0,0.0,89,0.00,,,0.00,WUHU216HW,2013-03-22 13:09:00,
2013-03-22 06:14:00,44.3,41.3,30.12,North,0,0.0,0.0,89,0.00,,,0.00,WUHU216HW,2013-03-22 13:14:00,
2013-03-22 06:19:00,43.9,41.0,30.12,North,0,0.0,0.0,89,0.00,,,0.00,WUHU216HW,2013-03-22 13:19:00,
2013-03-22 06:24:00,43.6,40.2,30.12,North,0,0.0,0.0,88,0.00,,,0.00,WUHU216HW,2013-03-22 13:24:00,
2013-03-22 06:29:00,43.4,40.4,30.12,North,0,0.0,0.0,89,0.00,,,0.00,WUHU216HW,2013-03-22 13:29:00,
2013-03-22 06:34:00,43.2,40.2,30.12,North,0,0.0,0.0,89,0.00,,,0.00,WUHU216HW,2013-03-22 13:34:00,
2013-03-22 06:39:00,43.4,40.4,30.12,North,0,0.0,0.0,89,0.00,,,0.00,WUHU216HW,2013-03-22 13:39:00,
2013-03-22 06:44:00,43.6,40.6,30.12,North,0,0.0,0.0,89,0.00,,,0.00,WUHU216HW,2013-03-22 13:44:00,
2013-03-22 06:49:00,43.4,40.4,30.12,North,0,0.0,0.0,89,0.00,,,0.00,WUHU216HW,2013-03-22 13:49:00,
2013-03-22 06:54:00,43.2,40.2,30.12,North,0,0.0,0.0,89,0.00,,,0.00,WUHU216HW,2013-03-22 13:54:00,
2013-03-22 06:59:00,43.0,39.7,30.12,North,0,0.0,0.0,88,0.00,,,0.00,WUHU216HW,2013-03-22 13:59:00,
2013-03-22 07:04:00,42.7,39.3,30.13,North,0,0.0,0.0,88,0.00,,,0.00,WUHU216HW,2013-03-22 14:04:00,
2013-03-22 07:09:00,42.7,39.7,30.13,North,0,0.0,0.0,89,0.00,,,0.00,WUHU216HW,2013-03-22 14:09:00,
2013-03-22 07:14:00,42.8,39.9,30.13,North,0,0.0,0.0,89,0.00,,,0.00,WUHU216HW,2013-03-22 14:14:00,
2013-03-22 07:19:00,42.7,39.7,30.13,North,0,0.0,0.0,89,0.00,,,0.00,WUHU216HW,2013-03-22 14:19:00,
2013-03-22 07:24:00,42.7,39.7,30.13,North,0,0.0,0.0,89,0.00,,,0.00,WUHU216HW,2013-03-22 14:24:00,
2013-03-22 07:29:00,42.7,39.7,30.13,North,0,0.0,0.0,89,0.00,,,0.00,WUHU216HW,2013-03-22 14:29:00,
2013-03-22 07:34:00,42.8,39.9,30.13,North,0,0.0,0.0,89,0.00,,,0.00,WUHU216HW,2013-03-22 14:34:00,
2013-03-22 07:39:00,42.7,39.7,30.13,North,0,0.0,0.0,89,0.00,,,0.00,WUHU216HW,2013-03-22 14:39:00,
2013-03-22 07:44:00,42.7,39.7,30.13,North,0,0.0,0.0,89,0.00,,,0.00,WUHU216HW,2013-03-22 14:44:00,
2013-03-22 07:49:00,42.8,39.9,30.13,North,0,0.0,0.0,89,0.00,,,0.00,WUHU216HW,2013-03-22 14:49:00,
2013-03-22 07:54:00,43.2,40.2,30.14,North,0,0.0,0.0,89,0.00,,,0.00,WUHU216HW,2013-03-22 14:54:00,
2013-03-22 07:59:00,43.7,40.8,30.14,North,0,0.0,0.0,89,0.00,,,0.00,WUHU216HW,2013-03-22 14:59:00,
2013-03-22 08:04:00,44.3,41.0,30.14,North,0,0.0,0.0,88,0.00,,,0.00,WUHU216HW,2013-03-22 15:04:00,
2013-03-22 08:09:00,44.6,41.7,30.14,North,0,0.0,0.0,89,0.00,,,0.00,WUHU216HW,2013-03-22 15:09:00,
2013-03-22 08:14:00,44.8,41.5,30.14,North,0,0.0,0.0,88,0.00,,,0.00,WUHU216HW,2013-03-22 15:14:00,
2013-03-22 08:19:00,45.2,41.9,30.14,North,0,0.0,0.0,88,0.00,,,0.00,WUHU216HW,2013-03-22 15:19:00,
2013-03-22 08:24:00,45.7,42.4,30.14,North,0,0.0,0.0,88,0.00,,,0.00,WUHU216HW,2013-03-22 15:24:00,
2013-03-22 08:29:00,46.8,43.5,30.15,North,0,0.0,0.0,88,0.00,,,0.00,WUHU216HW,2013-03-22 15:29:00,
2013-03-22 08:34:00,48.4,45.1,30.15,North,0,0.0,0.0,88,0.00,,,0.00,WUHU216HW,2013-03-22 15:34:00,
2013-03-22 08:39:00,50.4,46.9,30.15,North,0,0.0,0.0,88,0.00,,,0.00,WUHU216HW,2013-03-22 15:39:00,
2013-03-22 08:44:00,52.2,46.9,30.15,North,0,0.0,0.0,82,0.00,,,0.00,WUHU216HW,2013-03-22 15:44:00,
2013-03-22 08:49:00,53.1,48.1,30.15,North,0,0.0,0.0,83,0.00,,,0.00,WUHU216HW,2013-03-22 15:49:00,
2013-03-22 08:54:00,54.4,49.3,30.15,North,0,0.0,0.0,83,0.00,,,0.00,WUHU216HW,2013-03-22 15:54:00,
2013-03-22 08:59:00,55.1,49.0,30.15,North,0,0.0,0.0,80,0.00,,,0.00,WUHU216HW,2013-03-22 15:59:00,
2013-03-22 09:04:00,55.1,48.7,30.15,North,0,0.0,0.0,79,0.00,,,0.00,WUHU216HW,2013-03-22 16:04:00,
2013-03-22 09:09:00,55.8,48.3,30.15,North,0,0.0,0.0,76,0.00,,,0.00,WUHU216HW,2013-03-22 16:09:00,
2013-03-22 09:14:00,56.5,49.3,30.15,North,0,0.0,0.0,77,0.00,,,0.00,WUHU216HW,2013-03-22 16:14:00,
2013-03-22 09:19:00,58.0,49.7,30.15,North,0,0.0,0.0,74,0.00,,,0.00,WUHU216HW,2013-03-22 16:19:00,
2013-03-22 09:24:00,59.8,51.5,30.15,North,0,0.0,0.0,74,0.00,,,0.00,WUHU216HW,2013-03-22 16:24:00,
2013-03-22 09:29:00,59.4,48.1,30.15,North,0,0.0,0.0,66,0.00,,,0.00,WUHU216HW,2013-03-22 16:29:00,
2013-03-22 09:34:00,59.8,49.2,30.16,North,0,0.0,0.0,68,0.00,,,0.00,WUHU216HW,2013-03-22 16:34:00,
2013-03-22 09:39:00,59.4,48.4,30.16,North,0,0.0,0.0,67,0.00,,,0.00,WUHU216HW,2013-03-22 16:39:00,
2013-03-22 09:44:00,58.7,48.2,30.16,North,0,0.0,0.0,68,0.00,,,0.00,WUHU216HW,2013-03-22 16:44:00,
2013-03-22 09:49:00,59.0,48.9,30.16,North,0,0.0,0.0,69,0.00,,,0.00,WUHU216HW,2013-03-22 16:49:00,
2013-03-22 09:54:00,58.7,48.5,30.16,North,0,0.0,0.0,69,0.00,,,0.00,WUHU216HW,2013-03-22 16:54:00,
2013-03-22 09:59:00,58.5,46.7,30.16,North,0,0.0,0.0,65,0.00,,,0.00,WUHU216HW,2013-03-22 16:59:00,
2013-03-22 10:04:00,58.1,45.2,30.16,North,0,0.0,0.0,62,0.00,,,0.00,WUHU216HW,2013-03-22 17:04:00,
2013-03-22 10:09:00,57.4,44.1,30.16,North,0,0.0,0.0,61,0.00,,,0.00,WUHU216HW,2013-03-22 17:09:00,
2013-03-22 10:14:00,58.0,45.5,30.16,North,0,0.0,0.0,63,0.00,,,0.00,WUHU216HW,2013-03-22 17:14:00,
2013-03-22 10:19:00,58.7,45.7,30.16,North,0,0.0,0.0,62,0.00,,,0.00,WUHU216HW,2013-03-22 17:19:00,
2013-03-22 10:24:00,59.4,46.4,30.16,North,0,0.0,0.0,62,0.00,,,0.00,WUHU216HW,2013-03-22 17:24:00,
2013-03-22 10:29:00,59.9,46.9,30.17,North,0,0.0,0.0,62,0.00,,,0.00,WUHU216HW,2013-03-22 17:29:00,
2013-03-22 10:34:00,60.3,47.3,30.17,North,0,0.0,0.0,62,0.00,,,0.00,WUHU216HW,2013-03-22 17:34:00,
2013-03-22 10:39:00,59.9,46.1,30.17,North,0,0.0,0.0,60,0.00,,,0.00,WUHU216HW,2013-03-22 17:39:00,
2013-03-22 10:44:00,60.3,46.9,30.17,North,0,0.0,0.0,61,0.00,,,0.00,WUHU216HW,2013-03-22 17:44:00,
2013-03-22 10:49:00,61.0,47.5,30.17,North,0,0.0,0.0,61,0.00,,,0.00,WUHU216HW,2013-03-22 17:49:00,
2013-03-22 10:54:00,61.6,47.6,30.17,North,0,0.0,0.0,60,0.00,,,0.00,WUHU216HW,2013-03-22 17:54:00,
2013-03-22 10:59:00,61.6,45.7,30.17,North,0,0.0,0.0,56,0.00,,,0.00,WUHU216HW,2013-03-22 17:59:00,
2013-03-22 11:04:00,60.8,43.6,30.17,North,0,0.0,0.0,53,0.00,,,0.00,WUHU216HW,2013-03-22 18:04:00,
2013-03-22 11:09:00,60.7,44.8,30.17,North,0,0.0,0.0,56,0.00,,,0.00,WUHU216HW,2013-03-22 18:09:00,
2013-03-22 11:14:00,61.0,44.7,30.17,North,0,0.0,0.0,55,0.00,,,0.00,WUHU216HW,2013-03-22 18:14:00,
2013-03-22 11:19:00,61.4,43.6,30.17,North,0,0.0,0.0,52,0.00,,,0.00,WUHU216HW,2013-03-22 18:19:00,
2013-03-22 11:24:00,61.4,45.0,30.17,North,0,0.0,0.0,55,0.00,,,0.00,WUHU216HW,2013-03-22 18:24:00,
2013-03-22 11:29:00,61.7,42.9,30.18,North,0,0.0,0.0,50,0.00,,,0.00,WUHU216HW,2013-03-22 18:29:00,
2013-03-22 11:34:00,62.3,44.4,30.18,North,0,0.0,0.0,52,0.00,,,0.00,WUHU216HW,2013-03-22 18:34:00,
2013-03-22 11:39:00,63.7,44.1,30.18,North,0,0.0,0.0,49,0.00,,,0.00,WUHU216HW,2013-03-22 18:39:00,
2013-03-22 11:44:00,64.8,44.0,30.18,North,0,0.0,0.0,47,0.00,,,0.00,WUHU216HW,2013-03-22 18:44:00,
2013-03-22 11:49:00,65.5,46.4,30.18,North,0,0.0,0.0,50,0.00,,,0.00,WUHU216HW,2013-03-22 18:49:00,
2013-03-22 11:54:00,65.5,43.5,30.18,North,0,0.0,0.0,45,0.00,,,0.00,WUHU216HW,2013-03-22 18:54:00,
2013-03-22 11:59:00,65.3,41.6,30.17,North,0,0.0,0.0,42,0.00,,,0.00,WUHU216HW,2013-03-22 18:59:00,
2013-03-22 12:04:00,65.0,43.6,30.17,North,0,0.0,0.0,46,0.00,,,0.00,WUHU216HW,2013-03-22 19:04:00,
2013-03-22 12:09:00,65.3,44.5,30.17,North,0,0.0,0.0,47,0.00,,,0.00,WUHU216HW,2013-03-22 19:09:00,
2013-03-22 12:14:00,65.0,44.2,30.17,North,0,0.0,0.0,47,0.00,,,0.00,WUHU216HW,2013-03-22 19:14:00,
2013-03-22 12:19:00,64.8,44.6,30.17,North,0,0.0,0.0,48,0.00,,,0.00,WUHU216HW,2013-03-22 19:19:00,
2013-03-22 12:24:00,65.2,45.6,30.17,North,0,0.0,0.0,49,0.00,,,0.00,WUHU216HW,2013-03-22 19:24:00,
2013-03-22 12:29:00,65.3,45.7,30.16,North,0,0.0,0.0,49,0.00,,,0.00,WUHU216HW,2013-03-22 19:29:00,
2013-03-22 12:34:00,65.2,45.6,30.17,North,0,0.0,0.0,49,0.00,,,0.00,WUHU216HW,2013-03-22 19:34:00,
2013-03-22 12:39:00,64.6,45.0,30.16,North,0,0.0,0.0,49,0.00,,,0.00,WUHU216HW,2013-03-22 19:39:00,
2013-03-22 12:44:00,64.4,43.7,30.16,North,0,0.0,0.0,47,0.00,,,0.00,WUHU216HW,2013-03-22 19:44:00,
2013-03-22 12:49:00,63.9,42.0,30.16,North,0,0.0,0.0,45,0.00,,,0.00,WUHU216HW,2013-03-22 19:49:00,
2013-03-22 12:54:00,63.9,42.6,30.16,North,0,0.0,0.0,46,0.00,,,0.00,WUHU216HW,2013-03-22 19:54:00,
2013-03-22 12:59:00,63.9,42.6,30.16,North,0,0.0,0.0,46,0.00,,,0.00,WUHU216HW,2013-03-22 19:59:00,
2013-03-22 13:04:00,63.7,43.0,30.16,North,0,0.0,0.0,47,0.00,,,0.00,WUHU216HW,2013-03-22 20:04:00,
2013-03-22 13:09:00,63.9,42.0,30.16,North,0,0.0,0.0,45,0.00,,,0.00,WUHU216HW,2013-03-22 20:09:00,
2013-03-22 13:14:00,63.5,40.5,30.16,North,0,0.0,0.0,43,0.00,,,0.00,WUHU216HW,2013-03-22 20:14:00,
2013-03-22 13:19:00,63.7,42.4,30.16,North,0,0.0,0.0,46,0.00,,,0.00,WUHU216HW,2013-03-22 20:19:00,
2013-03-22 13:24:00,63.9,40.9,30.15,North,0,0.0,0.0,43,0.00,,,0.00,WUHU216HW,2013-03-22 20:24:00,
2013-03-22 13:29:00,63.7,40.7,30.15,North,0,0.0,0.0,43,0.00,,,0.00,WUHU216HW,2013-03-22 20:29:00,
2013-03-22 13:34:00,63.7,40.7,30.15,North,0,0.0,0.0,43,0.00,,,0.00,WUHU216HW,2013-03-22 20:34:00,
2013-03-22 13:39:00,63.9,40.9,30.15,North,0,0.0,0.0,43,0.00,,,0.00,WUHU216HW,2013-03-22 20:39:00,
2013-03-22 13:44:00,64.1,41.1,30.15,North,0,0.0,0.0,43,0.00,,,0.00,WUHU216HW,2013-03-22 20:44:00,
2013-03-22 13:49:00,64.4,41.3,30.15,North,0,0.0,0.0,43,0.00,,,0.00,WUHU216HW,2013-03-22 20:49:00,
2013-03-22 13:54:00,64.3,40.1,30.15,North,0,0.0,0.0,41,0.00,,,0.00,WUHU216HW,2013-03-22 20:54:00,
2013-03-22 13:59:00,64.4,41.3,30.15,North,0,0.0,0.0,43,0.00,,,0.00,WUHU216HW,2013-03-22 20:59:00,
2013-03-22 14:04:00,65.2,41.4,30.15,North,0,0.0,0.0,42,0.00,,,0.00,WUHU216HW,2013-03-22 21:04:00,
2013-03-22 14:09:00,65.5,42.3,30.14,North,0,0.0,0.0,43,0.00,,,0.00,WUHU216HW,2013-03-22 21:09:00,
2013-03-22 14:14:00,65.3,40.4,30.13,North,0,0.0,0.0,40,0.00,,,0.00,WUHU216HW,2013-03-22 21:14:00,
2013-03-22 14:19:00,65.7,40.8,30.13,North,0,0.0,0.0,40,0.00,,,0.00,WUHU216HW,2013-03-22 21:19:00,
2013-03-22 14:24:00,65.3,39.7,30.13,North,0,0.0,0.0,39,0.00,,,0.00,WUHU216HW,2013-03-22 21:24:00,
2013-03-22 14:29:00,65.2,39.5,30.13,North,0,0.0,0.0,39,0.00,,,0.00,WUHU216HW,2013-03-22 21:29:00,
2013-03-22 14:34:00,65.5,41.1,30.13,North,0,0.0,0.0,41,0.00,,,0.00,WUHU216HW,2013-03-22 21:34:00,
2013-03-22 14:39:00,65.7,40.1,30.13,North,0,0.0,0.0,39,0.00,,,0.00,WUHU216HW,2013-03-22 21:39:00,
2013-03-22 14:44:00,65.5,41.1,30.13,North,0,0.0,0.0,41,0.00,,,0.00,WUHU216HW,2013-03-22 21:44:00,
2013-03-22 14:49:00,65.7,40.1,30.13,North,0,0.0,0.0,39,0.00,,,0.00,WUHU216HW,2013-03-22 21:49:00,
2013-03-22 14:54:00,65.2,40.2,30.13,North,0,0.0,0.0,40,0.00,,,0.00,WUHU216HW,2013-03-22 21:54:00,
2013-03-22 14:59:00,65.2,42.0,30.12,North,0,0.0,0.0,43,0.00,,,0.00,WUHU216HW,2013-03-22 21:59:00,
2013-03-22 15:04:00,65.9,41.5,30.12,North,0,0.0,0.0,41,0.00,,,0.00,WUHU216HW,2013-03-22 22:04:00,
2013-03-22 15:09:00,66.4,41.4,30.12,North,0,0.0,0.0,40,0.00,,,0.00,WUHU216HW,2013-03-22 22:09:00,
2013-03-22 15:14:00,66.6,40.9,30.11,North,0,0.0,0.0,39,0.00,,,0.00,WUHU216HW,2013-03-22 22:14:00,
2013-03-22 15:19:00,66.6,40.9,30.11,North,0,0.0,0.0,39,0.00,,,0.00,WUHU216HW,2013-03-22 22:19:00,
2013-03-22 15:24:00,66.2,41.2,30.11,North,0,0.0,0.0,40,0.00,,,0.00,WUHU216HW,2013-03-22 22:24:00,
2013-03-22 15:29:00,66.6,43.3,30.12,North,0,0.0,0.0,43,0.00,,,0.00,WUHU216HW,2013-03-22 22:29:00,
2013-03-22 15:34:00,66.6,43.3,30.12,North,0,0.0,0.0,43,0.00,,,0.00,WUHU216HW,2013-03-22 22:34:00,
2013-03-22 15:39:00,66.6,45.1,30.12,North,0,0.0,0.0,46,0.00,,,0.00,WUHU216HW,2013-03-22 22:39:00,
2013-03-22 15:44:00,67.0,45.5,30.11,North,0,0.0,0.0,46,0.00,,,0.00,WUHU216HW,2013-03-22 22:44:00,
2013-03-22 15:49:00,67.3,44.6,30.11,North,0,0.0,0.0,44,0.00,,,0.00,WUHU216HW,2013-03-22 22:49:00,
2013-03-22 15:54:00,67.1,45.0,30.11,North,0,0.0,0.0,45,0.00,,,0.00,WUHU216HW,2013-03-22 22:54:00,
2013-03-22 15:59:00,67.0,44.8,30.11,North,0,0.0,0.0,45,0.00,,,0.00,WUHU216HW,2013-03-22 22:59:00,
2013-03-22 16:04:00,67.1,44.4,30.11,North,0,0.0,0.0,44,0.00,,,0.00,WUHU216HW,2013-03-22 23:04:00,
2013-03-22 16:09:00,66.8,44.6,30.11,North,0,0.0,0.0,45,0.00,,,0.00,WUHU216HW,2013-03-22 23:09:00,
2013-03-22 16:14:00,67.1,45.6,30.11,North,0,0.0,0.0,46,0.00,,,0.00,WUHU216HW,2013-03-22 23:14:00,
2013-03-22 16:19:00,67.5,45.9,30.11,North,0,0.0,0.0,46,0.00,,,0.00,WUHU216HW,2013-03-22 23:19:00,
2013-03-22 16:24:00,67.5,45.9,30.10,North,0,0.0,0.0,46,0.00,,,0.00,WUHU216HW,2013-03-22 23:24:00,
2013-03-22 16:29:00,67.5,45.9,30.11,North,0,0.0,0.0,46,0.00,,,0.00,WUHU216HW,2013-03-22 23:29:00,
2013-03-22 16:34:00,67.3,45.2,30.10,North,0,0.0,0.0,45,0.00,,,0.00,WUHU216HW,2013-03-22 23:34:00,
2013-03-22 16:39:00,67.1,44.4,30.10,North,0,0.0,0.0,44,0.00,,,0.00,WUHU216HW,2013-03-22 23:39:00,
2013-03-22 16:44:00,67.0,44.8,30.10,North,0,0.0,0.0,45,0.00,,,0.00,WUHU216HW,2013-03-22 23:44:00,
2013-03-22 16:49:00,67.0,44.8,30.10,North,0,0.0,0.0,45,0.00,,,0.00,WUHU216HW,2013-03-22 23:49:00,
2013-03-22 16:54:00,67.0,44.8,30.10,North,0,0.0,0.0,45,0.00,,,0.00,WUHU216HW,2013-03-22 23:54:00,
2013-03-22 16:59:00,66.6,44.6,30.10,North,0,0.0,0.0,45,0.00,,,0.00,WUHU216HW,2013-03-22 23:59:00,
2013-03-22 17:04:00,66.2,44.2,30.10,North,0,0.0,0.0,45,0.00,,,0.00,WUHU216HW,2013-03-23 00:04:00,
2013-03-22 17:09:00,65.9,43.3,30.10,North,0,0.0,0.0,44,0.00,,,0.00,WUHU216HW,2013-03-23 00:09:00,
2013-03-22 17:14:00,65.7,43.7,30.10,North,0,0.0,0.0,45,0.00,,,0.00,WUHU216HW,2013-03-23 00:14:00,
2013-03-22 17:19:00,65.5,42.9,30.10,North,0,0.0,0.0,44,0.00,,,0.00,WUHU216HW,2013-03-23 00:19:00,
2013-03-22 17:24:00,65.2,42.6,30.10,North,0,0.0,0.0,44,0.00,,,0.00,WUHU216HW,2013-03-23 00:24:00,
2013-03-22 17:29:00,64.8,42.2,30.10,North,0,0.0,0.0,44,0.00,,,0.00,WUHU216HW,2013-03-23 00:29:00,
2013-03-22 17:35:00,64.6,42.7,30.10,North,0,0.0,0.0,45,0.00,,,0.00,WUHU216HW,2013-03-23 00:35:00,
2013-03-22 17:40:00,64.4,42.5,30.10,North,0,0.0,0.0,45,0.00,,,0.00,WUHU216HW,2013-03-23 00:40:00,
2013-03-22 17:45:00,64.3,42.3,30.10,North,0,0.0,0.0,45,0.00,,,0.00,WUHU216HW,2013-03-23 00:45:00,
2013-03-22 17:50:00,64.1,42.1,30.10,North,0,0.0,0.0,45,0.00,,,0.00,WUHU216HW,2013-03-23 00:50:00,
2013-03-22 17:55:00,63.9,42.0,30.10,North,0,0.0,0.0,45,0.00,,,0.00,WUHU216HW,2013-03-23 00:55:00,
2013-03-22 18:00:00,63.7,41.2,30.10,North,0,0.0,0.0,44,0.00,,,0.00,WUHU216HW,2013-03-23 01:00:00,
2013-03-22 18:05:00,63.7,40.2,30.10,North,0,0.0,0.0,42,0.00,,,0.00,WUHU216HW,2013-03-23 01:05:00,
2013-03-22 18:10:00,63.7,37.5,30.10,North,0,0.0,0.0,38,0.00,,,0.00,WUHU216HW,2013-03-23 01:10:00,
2013-03-22 18:15:00,63.5,44.6,30.10,North,0,0.0,0.0,50,0.00,,,0.00,WUHU216HW,2013-03-23 01:15:00,
2013-03-22 18:20:00,62.1,45.2,30.10,North,0,0.0,0.0,54,0.00,,,0.00,WUHU216HW,2013-03-23 01:20:00,
2013-03-22 18:25:00,60.5,45.6,30.11,North,0,0.0,0.0,58,0.00,,,0.00,WUHU216HW,2013-03-23 01:25:00,
2013-03-22 18:30:00,59.8,46.4,30.11,North,0,0.0,0.0,61,0.00,,,0.00,WUHU216HW,2013-03-23 01:30:00,
2013-03-22 18:35:00,59.2,46.2,30.11,North,0,0.0,0.0,62,0.00,,,0.00,WUHU216HW,2013-03-23 01:35:00,
2013-03-22 18:40:00,58.7,45.7,30.12,North,0,0.0,0.0,62,0.00,,,0.00,WUHU216HW,2013-03-23 01:40:00,
2013-03-22 18:45:00,58.5,45.9,30.12,North,0,0.0,0.0,63,0.00,,,0.00,WUHU216HW,2013-03-23 01:45:00,
2013-03-22 18:50:00,58.3,45.4,30.11,North,0,0.0,0.0,62,0.00,,,0.00,WUHU216HW,2013-03-23 01:50:00,
2013-03-22 18:55:00,58.0,45.0,30.11,North,0,0.0,0.0,62,0.00,,,0.00,WUHU216HW,2013-03-23 01:55:00,
2013-03-22 19:00:00,57.8,45.3,30.11,North,0,0.0,0.0,63,0.00,,,0.00,WUHU216HW,2013-03-23 02:00:00,
2013-03-22 19:05:00,57.4,45.3,30.11,North,0,0.0,0.0,64,0.00,,,0.00,WUHU216HW,2013-03-23 02:05:00,
2013-03-22 19:10:00,57.1,45.0,30.11,North,0,0.0,0.0,64,0.00,,,0.00,WUHU216HW,2013-03-23 02:10:00,
2013-03-22 19:15:00,56.7,44.7,30.11,North,0,0.0,0.0,64,0.00,,,0.00,WUHU216HW,2013-03-23 02:15:00,
2013-03-22 19:20:00,56.5,44.5,30.12,North,0,0.0,0.0,64,0.00,,,0.00,WUHU216HW,2013-03-23 02:20:00,
2013-03-22 19:25:00,56.2,44.6,30.12,North,0,0.0,0.0,65,0.00,,,0.00,WUHU216HW,2013-03-23 02:25:00,
2013-03-22 19:30:00,55.8,44.6,30.12,North,0,0.0,0.0,66,0.00,,,0.00,WUHU216HW,2013-03-23 02:30:00,
2013-03-22 19:35:00,55.4,44.3,30.12,North,0,0.0,0.0,66,0.00,,,0.00,WUHU216HW,2013-03-23 02:35:00,
2013-03-22 19:40:00,55.1,44.3,30.12,North,0,0.0,0.0,67,0.00,,,0.00,WUHU216HW,2013-03-23 02:40:00,
2013-03-22 19:45:00,54.7,44.4,30.13,North,0,0.0,0.0,68,0.00,,,0.00,WUHU216HW,2013-03-23 02:45:00,
2013-03-22 19:50:00,54.5,44.6,30.13,North,0,0.0,0.0,69,0.00,,,0.00,WUHU216HW,2013-03-23 02:50:00,
2013-03-22 19:55:00,54.2,43.8,30.12,North,0,0.0,0.0,68,0.00,,,0.00,WUHU216HW,2013-03-23 02:55:00,
2013-03-22 20:00:00,53.6,43.8,30.13,North,0,0.0,0.0,69,0.00,,,0.00,WUHU216HW,2013-03-23 03:00:00,
2013-03-22 20:05:00,53.5,43.6,30.13,North,0,0.0,0.0,69,0.00,,,0.00,WUHU216HW,2013-03-23 03:05:00,
2013-03-22 20:10:00,53.1,43.2,30.13,North,0,0.0,0.0,69,0.00,,,0.00,WUHU216HW,2013-03-23 03:10:00,
2013-03-22 20:15:00,52.9,43.0,30.13,North,0,0.0,0.0,69,0.00,,,0.00,WUHU216HW,2013-03-23 03:15:00,
2013-03-22 20:20:00,52.6,42.8,30.13,North,0,0.0,0.0,69,0.00,,,0.00,WUHU216HW,2013-03-23 03:20:00,
2013-03-22 20:25:00,52.4,42.6,30.13,North,0,0.0,0.0,69,0.00,,,0.00,WUHU216HW,2013-03-23 03:25:00,
2013-03-22 20:30:00,52.2,42.4,30.13,North,0,0.0,0.0,69,0.00,,,0.00,WUHU216HW,2013-03-23 03:30:00,
2013-03-22 20:35:00,52.2,42.4,30.13,North,0,0.0,0.0,69,0.00,,,0.00,WUHU216HW,2013-03-23 03:35:00,
2013-03-22 20:40:00,51.8,41.7,30.14,North,0,0.0,0.0,68,0.00,,,0.00,WUHU216HW,2013-03-23 03:40:00,
2013-03-22 20:45:00,51.7,41.9,30.14,North,0,0.0,0.0,69,0.00,,,0.00,WUHU216HW,2013-03-23 03:45:00,
2013-03-22 20:50:00,51.5,41.7,30.14,North,0,0.0,0.0,69,0.00,,,0.00,WUHU216HW,2013-03-23 03:50:00,
2013-03-22 20:55:00,51.5,41.7,30.14,North,0,0.0,0.0,69,0.00,,,0.00,WUHU216HW,2013-03-23 03:55:00,
2013-03-22 21:00:00,51.3,41.1,30.15,North,0,0.0,0.0,68,0.00,,,0.00,WUHU216HW,2013-03-23 04:00:00,
2013-03-22 21:05:00,51.3,41.1,30.15,North,0,0.0,0.0,68,0.00,,,0.00,WUHU216HW,2013-03-23 04:05:00,
2013-03-22 21:10:00,51.1,41.0,30.15,North,0,0.0,0.0,68,0.00,,,0.00,WUHU216HW,2013-03-23 04:10:00,
2013-03-22 21:15:00,50.9,40.8,30.15,North,0,0.0,0.0,68,0.00,,,0.00,WUHU216HW,2013-03-23 04:15:00,
2013-03-22 21:20:00,50.8,40.6,30.15,North,0,0.0,0.0,68,0.00,,,0.00,WUHU216HW,2013-03-23 04:20:00,
2013-03-22 21:25:00,50.8,40.6,30.16,North,0,0.0,0.0,68,0.00,,,0.00,WUHU216HW,2013-03-23 04:25:00,
2013-03-22 21:30:00,50.6,40.4,30.16,North,0,0.0,0.0,68,0.00,,,0.00,WUHU216HW,2013-03-23 04:30:00,
2013-03-22 21:35:00,50.4,39.9,30.16,North,0,0.0,0.0,67,0.00,,,0.00,WUHU216HW,2013-03-23 04:35:00,
2013-03-22 21:40:00,50.4,39.9,30.16,North,0,0.0,0.0,67,0.00,,,0.00,WUHU216HW,2013-03-23 04:40:00,
2013-03-22 21:45:00,50.2,39.7,30.16,North,0,0.0,0.0,67,0.00,,,0.00,WUHU216HW,2013-03-23 04:45:00,
2013-03-22 21:50:00,50.0,39.5,30.16,North,0,0.0,0.0,67,0.00,,,0.00,WUHU216HW,2013-03-23 04:50:00,
2013-03-22 21:55:00,49.9,39.3,30.16,North,0,0.0,0.0,67,0.00,,,0.00,WUHU216HW,2013-03-23 04:55:00,
2013-03-22 22:00:00,49.7,39.5,30.16,North,0,0.0,0.0,68,0.00,,,0.00,WUHU216HW,2013-03-23 05:00:00,
2013-03-22 22:05:00,49.7,39.5,30.16,North,0,0.0,0.0,68,0.00,,,0.00,WUHU216HW,2013-03-23 05:05:00,
2013-03-22 22:10:00,49.5,39.3,30.16,North,0,0.0,0.0,68,0.00,,,0.00,WUHU216HW,2013-03-23 05:10:00,
2013-03-22 22:15:00,49.1,39.0,30.16,North,0,0.0,0.0,68,0.00,,,0.00,WUHU216HW,2013-03-23 05:15:00,
2013-03-22 22:20:00,49.1,39.4,30.16,North,0,0.0,0.0,69,0.00,,,0.00,WUHU216HW,2013-03-23 05:20:00,
2013-03-22 22:25:00,49.1,39.8,30.16,North,0,0.0,0.0,70,0.00,,,0.00,WUHU216HW,2013-03-23 05:25:00,
2013-03-22 22:30:00,49.1,39.8,30.16,North,0,0.0,0.0,70,0.00,,,0.00,WUHU216HW,2013-03-23 05:30:00,
2013-03-22 22:35:00,49.1,39.8,30.16,North,0,0.0,0.0,70,0.00,,,0.00,WUHU216HW,2013-03-23 05:35:00,
2013-03-22 22:40:00,49.0,40.0,30.17,North,0,0.0,0.0,71,0.00,,,0.00,WUHU216HW,2013-03-23 05:40:00,
2013-03-22 22:45:00,49.0,40.0,30.17,North,0,0.0,0.0,71,0.00,,,0.00,WUHU216HW,2013-03-23 05:45:00,
2013-03-22 22:50:00,48.8,39.8,30.17,North,0,0.0,0.0,71,0.00,,,0.00,WUHU216HW,2013-03-23 05:50:00,
2013-03-22 22:55:00,48.8,39.4,30.16,North,0,0.0,0.0,70,0.00,,,0.00,WUHU216HW,2013-03-23 05:55:00,
2013-03-22 23:00:00,48.6,39.6,30.16,North,0,0.0,0.0,71,0.00,,,0.00,WUHU216HW,2013-03-23 06:00:00,
2013-03-22 23:05:00,48.4,39.8,30.16,North,0,0.0,0.0,72,0.00,,,0.00,WUHU216HW,2013-03-23 06:05:00,
2013-03-22 23:10:00,48.2,39.9,30.17,North,0,0.0,0.0,73,0.00,,,0.00,WUHU216HW,2013-03-23 06:10:00,
2013-03-22 23:15:00,48.2,40.2,30.17,North,0,0.0,0.0,74,0.00,,,0.00,WUHU216HW,2013-03-23 06:15:00,
2013-03-22 23:20:00,48.1,40.4,30.17,North,0,0.0,0.0,75,0.00,,,0.00,WUHU216HW,2013-03-23 06:20:00,
2013-03-22 23:25:00,48.1,40.8,30.17,North,0,0.0,0.0,76,0.00,,,0.00,WUHU216HW,2013-03-23 06:25:00,
2013-03-22 23:30:00,48.2,41.9,30.17,North,0,0.0,0.0,79,0.00,,,0.00,WUHU216HW,2013-03-23 06:30:00,
2013-03-22 23:35:00,48.2,42.3,30.17,North,0,0.0,0.0,80,0.00,,,0.00,WUHU216HW,2013-03-23 06:35:00,
2013-03-22 23:40:00,48.2,42.3,30.17,North,0,0.0,0.0,80,0.00,,,0.00,WUHU216HW,2013-03-23 06:40:00,
2013-03-22 23:45:00,48.1,42.1,30.17,North,0,0.0,0.0,80,0.00,,,0.00,WUHU216HW,2013-03-23 06:45:00,
2013-03-22 23:50:00,47.9,42.3,30.17,North,0,0.0,0.0,81,0.00,,,0.00,WUHU216HW,2013-03-23 06:50:00,
2013-03-22 23:55:00,47.9,42.3,30.17,North,0,0.0,0.0,81,0.00,,,0.00,WUHU216HW,2013-03-23 06:55:00,